Location: Unspecified
(0.0000°N, 0.0000°E)
Time: 12:39:40
(UTC+02:00)

Cosmos 1908 Rocket - Visible Passes

Search period start: 03 August 2015 00:00
Search period end: 13 August 2015 00:00
Orbit: 606 x 634 km, 82.5° (Epoch: 02 August)

Date Brightness Start Highest point End Pass type
(mag) Time Alt. Az. Time Alt. Az. Time Alt. Az.
04 Aug 5.8 20:33:16 10° SSW 20:37:06 29° W 20:40:50 10° NNW visible
05 Aug 6.8 07:05:31 10° NE 07:08:01 15° E 07:10:46 10° ESE visible
05 Aug 6.9 20:52:38 10° WSW 20:54:47 13° W 20:56:39 10° WNW visible
06 Aug 5.5 07:21:42 10° NNE 07:25:42 34° E 07:29:47 10° SSE visible
07 Aug 3.8 07:38:52 10° N 07:43:19 82° E 07:47:48 10° S visible
09 Aug 6.6 06:37:59 10° NE 06:40:48 17° E 06:43:51 10° SE visible
10 Aug 5.1 06:54:22 10° NNE 06:58:29 38° E 07:02:40 10° SSE visible
11 Aug 3.6 07:11:38 10° N 07:16:05 89° W 07:20:34 10° S visible
12 Aug 4.1 07:29:33 10° NNW 07:33:42 37° W 07:37:49 10° SSW visible
